Time,TemperatureF,DewpointF,PressureIn,WindDirection,WindDirectionDegrees,WindSpeedMPH,WindSpeedGustMPH,Humidity,HourlyPrecipIn,Conditions,Clouds,dailyrainin,SoftwareType,DateUTC
2013-10-10 00:02:00,37.4,29.5,29.35,SE,135,8.1,8.1,73,0.00,CLR,SCT,0.00,WeatherDisplay:10.37,2013-10-10 08:02:00,
2013-10-10 00:07:00,37.8,29.9,29.35,SE,135,8.1,8.1,73,0.00,CLR,SCT,0.00,WeatherDisplay:10.37,2013-10-10 08:07:00,
2013-10-10 00:12:00,37.6,30.0,29.35,SE,135,5.8,5.8,74,0.00,CLR,SCT,0.00,WeatherDisplay:10.37,2013-10-10 08:12:00,
2013-10-10 00:17:00,37.6,30.4,29.32,SE,135,8.1,8.1,75,0.00,CLR,SCT,0.00,WeatherDisplay:10.37,2013-10-10 08:17:00,
2013-10-10 00:22:00,37.6,30.4,29.32,SE,135,8.1,8.1,75,0.00,CLR,SCT,0.00,WeatherDisplay:10.37,2013-10-10 08:22:00,
2013-10-10 00:27:00,37.4,30.5,29.32,SE,135,5.8,5.8,76,0.00,CLR,SCT,0.00,WeatherDisplay:10.37,2013-10-10 08:27:00,
2013-10-10 00:32:00,37.6,30.7,29.32,SSE,158,5.8,5.8,76,0.00,CLR,SCT,0.00,WeatherDisplay:10.37,2013-10-10 08:32:00,
2013-10-10 00:37:00,37.4,30.5,29.32,SE,135,5.4,5.4,76,0.00,CLR,SCT,0.00,WeatherDisplay:10.37,2013-10-10 08:37:00,
2013-10-10 00:42:00,37.6,30.4,29.32,ESE,112,4.6,4.6,75,0.00,CLR,SCT,0.00,WeatherDisplay:10.37,2013-10-10 08:42:00,
2013-10-10 00:47:00,37.6,30.4,29.32,SE,135,4.6,4.6,75,0.00,CLR,SCT,0.00,WeatherDisplay:10.37,2013-10-10 08:47:00,
2013-10-10 00:52:00,37.6,30.4,29.32,SE,135,4.6,4.6,75,0.00,CLR,SCT,0.00,WeatherDisplay:10.37,2013-10-10 08:52:00,
2013-10-10 00:57:00,37.4,30.2,29.32,South,180,3.5,3.5,75,0.00,CLR,SCT,0.00,WeatherDisplay:10.37,2013-10-10 08:57:00,
2013-10-10 01:02:00,37.2,30.0,29.32,SSE,158,4.6,4.6,75,0.00,CLR,SCT,0.00,WeatherDisplay:10.37,2013-10-10 09:02:00,
2013-10-10 01:07:00,37.4,30.2,29.32,SE,135,4.9,4.9,75,0.00,CLR,SCT,0.00,WeatherDisplay:10.37,2013-10-10 09:07:00,
2013-10-10 01:12:00,37.6,30.0,29.32,SE,135,4.6,4.6,74,0.00,CLR,SCT,0.00,WeatherDisplay:10.37,2013-10-10 09:12:00,
2013-10-10 01:17:00,37.0,29.5,29.32,SE,135,4.6,4.6,74,0.00,CLR,SCT,0.00,WeatherDisplay:10.37,2013-10-10 09:17:00,
2013-10-10 01:22:00,37.0,29.8,29.32,SSE,158,5.4,5.4,75,0.00,CLR,SCT,0.00,WeatherDisplay:10.37,2013-10-10 09:22:00,
2013-10-10 01:27:00,37.2,30.0,29.32,SSE,158,4.6,4.6,75,0.00,CLR,SCT,0.00,WeatherDisplay:10.37,2013-10-10 09:27:00,
2013-10-10 01:32:00,36.7,29.8,29.32,SSE,158,5.8,5.8,76,0.00,CLR,SCT,0.00,WeatherDisplay:10.37,2013-10-10 09:32:00,
2013-10-10 01:37:00,37.2,30.7,29.32,SSE,158,5.8,5.8,77,0.00,CLR,SCT,0.00,WeatherDisplay:10.37,2013-10-10 09:37:00,
2013-10-10 01:42:00,37.2,30.7,29.32,SSE,158,4.6,4.6,77,0.00,CLR,SCT,0.00,WeatherDisplay:10.37,2013-10-10 09:42:00,
2013-10-10 01:47:00,37.2,30.7,29.32,SE,135,4.6,4.6,77,0.00,CLR,SCT,0.00,WeatherDisplay:10.37,2013-10-10 09:47:00,
2013-10-10 01:52:00,37.4,31.2,29.32,SE,135,5.8,5.8,78,0.00,CLR,SCT,0.00,WeatherDisplay:10.37,2013-10-10 09:52:00,
2013-10-10 01:58:00,37.0,30.8,29.32,SE,135,5.9,5.9,78,0.00,CLR,SCT,0.00,WeatherDisplay:10.37,2013-10-10 09:58:00,
2013-10-10 02:03:00,37.4,31.5,29.32,SSE,158,5.8,5.8,79,0.00,CLR,SCT,0.00,WeatherDisplay:10.37,2013-10-10 10:03:00,
2013-10-10 02:08:00,37.2,31.6,29.32,SSE,158,4.0,4.0,80,0.00,CLR,SCT,0.00,WeatherDisplay:10.37,2013-10-10 10:08:00,
2013-10-10 02:13:00,37.4,31.8,29.32,SSE,158,5.9,5.9,80,0.00,CLR,SCT,0.00,WeatherDisplay:10.37,2013-10-10 10:13:00,
2013-10-10 02:18:00,37.4,31.5,29.32,SSE,158,4.6,4.6,79,0.00,CLR,SCT,0.00,WeatherDisplay:10.37,2013-10-10 10:18:00,
2013-10-10 02:23:00,37.4,31.5,29.32,SE,135,5.9,5.9,79,0.00,CLR,SCT,0.00,WeatherDisplay:10.37,2013-10-10 10:23:00,
2013-10-10 02:28:00,37.6,31.7,29.32,SSE,158,5.8,5.8,79,0.00,CLR,SCT,0.00,WeatherDisplay:10.37,2013-10-10 10:28:00,
2013-10-10 02:33:00,37.8,31.5,29.32,SSE,158,5.8,5.8,78,0.00,CLR,SCT,0.00,WeatherDisplay:10.37,2013-10-10 10:33:00,
2013-10-10 02:38:00,37.9,32.0,29.32,SE,135,5.8,5.8,79,0.00,CLR,SCT,0.00,WeatherDisplay:10.37,2013-10-10 10:38:00,
2013-10-10 02:43:00,38.1,32.5,29.32,SSE,158,5.8,5.8,80,0.00,CLR,SCT,0.00,WeatherDisplay:10.37,2013-10-10 10:43:00,
2013-10-10 02:48:00,37.9,32.6,29.32,SSE,158,5.8,5.8,81,0.00,CLR,SCT,0.00,WeatherDisplay:10.37,2013-10-10 10:48:00,
2013-10-10 02:53:00,37.9,32.9,29.32,SE,135,5.8,5.8,82,0.00,CLR,SCT,0.00,WeatherDisplay:10.37,2013-10-10 10:53:00,
2013-10-10 02:58:00,38.1,33.4,29.32,SE,135,5.8,5.8,83,0.00,CLR,SCT,0.00,WeatherDisplay:10.37,2013-10-10 10:58:00,
2013-10-10 03:03:00,37.9,33.5,29.32,SE,135,4.6,4.6,84,0.00,CLR,SCT,0.00,WeatherDisplay:10.37,2013-10-10 11:03:00,
2013-10-10 03:08:00,38.1,34.0,29.32,SE,135,5.8,5.8,85,0.00,CLR,SCT,0.00,WeatherDisplay:10.37,2013-10-10 11:08:00,
2013-10-10 03:13:00,38.3,34.5,29.32,SSE,158,4.9,4.9,86,0.00,CLR,SCT,0.00,WeatherDisplay:10.37,2013-10-10 11:13:00,
2013-10-10 03:18:00,38.1,34.3,29.32,SE,135,4.6,4.6,86,0.00,CLR,SCT,0.00,WeatherDisplay:10.37,2013-10-10 11:18:00,
2013-10-10 03:23:00,38.5,34.9,29.32,SE,135,5.8,5.8,87,0.00,CLR,SCT,0.00,WeatherDisplay:10.37,2013-10-10 11:23:00,
2013-10-10 03:28:00,38.8,35.6,29.32,SE,135,5.8,5.8,88,0.00,CLR,SCT,0.00,WeatherDisplay:10.37,2013-10-10 11:28:00,
2013-10-10 03:33:00,38.8,35.6,29.32,SE,135,4.6,4.6,88,0.00,CLR,SCT,0.00,WeatherDisplay:10.37,2013-10-10 11:33:00,